Погода в Уфе

Россия / Республика Башкортостан     54°44′06″N   55°57′31″E
темп.,
°C
ветер,
м/с
пор.,
м/с
влажн.,
%
обл.,
%
осадки,
мм/ч
давл.,
гПа
погр.,
м
22 января, сб
сб2223:00−19юв119581 0.0 102612
02:00−16юв119880 0.0 102730
05:00−14юв1198100 0.1 102728
08:00−13юв2497100 0.1 102783
11:00−12ююв2796100 0.1 1028166
14:00−8ююв3892100 0.0 1028324
17:00−10ююв2395100 0.0 103061
20:00−15юв119899 0.0 10319
23 января, вс
вс2323:00−16юв1199100 0.0 103211
02:00−16юв1199100 0.0 103215
05:00−16ююв1199100 0.0 103310
08:00−16юв1198100 0.0 103410
11:00−11юв1295100 0.0 103472
14:00−8юв1291100 0.0 1035119
17:00−9юв1195100 0.0 103610
20:00−12юв1197100 0.0 103810
24 января, пн
пн2423:00−14юв1198100 0.0 10389
02:00−14в1197100 0.0 10399
05:00−12ююв1197100 0.0 104016
08:00−14юв0097100 0.0 10409
11:00−12ю1195100 0.0 104032
14:00−8ю1192100 0.0 1039100
17:00−9з0096100 0.0 104010
20:00−10юв1197100 0.0 103910
25 января, вт
вт2523:00−11юз0197100 0.1 103910
02:00−14ю1198100 0.0 10389
05:00−16юз0099100 0.0 10389
08:00−15ююз2199100 0.0 103726
11:00−14ююв119785 0.0 103736
14:00−9ю128995 0.0 1035137
17:00−12ююв1194100 0.0 10359
20:00−17ююв119769 0.0 10359
26 января, ср
ср2623:00−20ююв1199100 0.0 10349
02:00−21ююв1198100 0.0 103410
05:00−22ююв1197100 0.0 103410
08:00−23ююв1198100 0.0 10339
11:00−18ююв129086 0.0 103350
14:00−11ю127883 0.0 1032126
17:00−14юв1190100 0.0 10329
20:00−18ююв1195100 0.0 103210